Location: Aurora Center
(43.5271°N, 98.5894°W)
Time: 01:19:17
(UTC-05:00)

Envisat - Pass Details

Date: 22 June 2024
Orbit: 762 x 764 km, 98.3° (Epoch: 12 July)

Event Time Altitude Azimuth Distance (km) Brightness Sun altitude
Rises 04:20:45 0° 19° (NNE) 3,235 7.7 -13.2°
Reaches altitude 10° 04:23:11 10° 27° (NNE) 2,304 6.9 -12.9°
Maximum altitude 04:28:00 43° 98° (E) 1,067 4.0 -12.3°
Drops below altitude 10° 04:32:47 10° 170° (S) 2,288 5.1 -11.8°
Enters shadow 04:34:07 - 174° (S) 2,797 5.5 -11.6°
